DECAYED

CZ-4 DEB, 36304 (Decayed)

Orbit data source: Space-Track

CZ-4 DEB, 36304 was space debris in SSO originally from a launch on Thu, 14 Oct 1999 UTC launched from the Taiyaun Space Center, China (TSC). Debris objects in space refer to the collection of defunct objects orbiting the Earth. Examples of debris include non-operational satellites, rocket bodies, and fragments generated from explosions, collisions, or faulty payload assembly.

Not visible in the next 10 days
Identifier
36304, 1999-057SV
Orbit
Decayed
Country
Flag of CNCN / PRC
Related business
Manufacturer
Unknown
Mission
Decayed spacecraft
Bus & Motor
Unknown
Mass
Unknown
Launch date (UTC)
1999-10-14 (26 years ago)
Launch vehicle
Unknown
Launch site
Taiyaun Space Center, China (TSC)
Object type
Payload
Rocket body
Debris
Shape & HBR
Unknown shape, 0.1 m
Radar Cross Section
Small (<0.1 m²)

Expand to show TLE details & history
Last TLE update: 2 months ago

TLE from 2 months ago
0 CZ-4 DEB
1 36304U 99057SV  25228.92334544  .00711242  00000-0  49104-2 0  9996
2 36304  98.7065 101.6495 0009502 143.0317 217.1599 15.72484730615865
Epoch: 2025-08-16T22:09Z
TLE epoch observation values (Epoch: 2025-08-16T22:09:37.046Z)
Latitude
0.00002°
Longitude
163.69353°
Altitude
360.018 km
Speed
7.69 km/s
True Right ascension
06h 46m 35s
True Declination
0° 00' 00"
Sunlit
Object was in daylight at epoch
Visualization orbit readout
Latitude
Unknown
Longitude
Unknown
Altitude
Unknown
Speed
Unknown
Apparent Right ascension
Unknown
Apparent Declination
Unknown
Sunlit
N/A
Visualization observer readout
Local Sidereal Time
12:05:29
Azimuth
Unknown
Elevation
Unknown
Doppler factor
Unknown
Orbital elements
Apogee altitude
355.148 km
Perigee altitude
342.364 km
Semi-major axis
6,726.893 km
Eccentricity
0.00095
Inclination
98.7065°
RAAN
101.6495°
Arg. of periapsis
143.0317°
True anomaly
217.09419°
Mean anomaly
217.1599°
Eccentric anomaly
217.12704°
Mean motion
3.93388 °/min
Orbital period
91.51 mins
BSTAR
0.0049104
Loading maneuver chart data...
Computing Atmospheric mass density...

Documentation

Showing up to 5 results
|